This demonstration page uses our WeatherBlox Daily Observations layout. Learn more.

Left ArrowRight Arrow

Hourly Observations for September 16, 2018

Temp ( °F °C ) Dew Point ( °F °C ) Humidity (%) Winds ( mph kmh ) Pressure ( in mb ) Visibility ( mi km ) Precip ( " mm )
12:53 am 00:53 Clear 70 21.1 67 19.4 90 90 Calm 30.07 1018 10 16 0.00 0.00
1:53 am 01:53 Clear 69 20.6 67 19.4 93 93 Calm 30.07 1018 10 16 0.00 0.00
2:53 am 02:53 Clear 68 20 67 19.4 96 96 Calm 30.07 1018 10 16 0.00 0.00
3:53 am 03:53 Clear 69 20.6 67 19.4 93 93 Calm 30.07 1018 10 16 0.00 0.00
4:53 am 04:53 Clear 67 19.4 66 18.9 97 97 Calm 30.07 1018 10 16 0.00 0.00
5:53 am 05:53 Clear 67 19.4 65 18.3 93 93 Calm 30.08 1019 10 16 0.00 0.00
6:53 am 06:53 Clear 66 18.9 65 18.3 96 96 Calm 30.08 1019 8 13 0.00 0.00
7:53 am 07:53 Sunny 66 18.9 65 18.3 96 96 Calm 30.09 1019 10 16 0.00 0.00
8:53 am 08:53 Sunny 71 21.7 68 20 90 90 NE 6 9 30.10 1019 10 16 0.00 0.00
9:53 am 09:53 Sunny 74 23.3 68 20 82 82 ENE 9 15 30.09 1019 10 16 0.00 0.00
10:53 am 10:53 Sunny 77 25 69 20.6 77 77 E 8 13 30.10 1019 10 16 0.00 0.00
11:53 am 11:53 Sunny 80 26.7 69 20.6 69 69 E 8 13 30.10 1019 10 16 0.00 0.00
12:53 pm 12:53 Sunny 80 26.7 69 20.6 69 69 ESE 8 13 30.09 1019 10 16 0.00 0.00
1:53 pm 13:53 Sunny 82 27.8 69 20.6 65 65 E 6 9 30.06 1018 10 16 0.00 0.00
2:53 pm 14:53 Sunny 83 28.3 68 20 61 61 ENE 10 17 30.04 1017 10 16 0.00 0.00
3:53 pm 15:53 Mostly Sunny 85 29.4 68 20 57 57 E 6 9 30.01 1016 10 16 0.00 0.00
4:53 pm 16:53 Mostly Sunny 86 30 68 20 55 55 ESE 10 17 30.00 1016 10 16 0.00 0.00
5:53 pm 17:53 Sunny 83 28.3 68 20 61 61 E 7 11 30.00 1016 10 16 0.00 0.00
6:53 pm 18:53 Sunny 80 26.7 68 20 67 67 ESE 6 9 30.00 1016 10 16 0.00 0.00
7:53 pm 19:53 Clear 75 23.9 70 21.1 84 84 Calm 30.00 1016 10 16 0.00 0.00
8:53 pm 20:53 Clear 76 24.4 68 20 77 77 E 6 9 30.01 1016 10 16 0.00 0.00
9:53 pm 21:53 Clear 76 24.4 68 20 77 77 E 6 9 30.01 1016 10 16 0.00 0.00
10:53 pm 22:53 Mostly Clear 76 24.4 68 20 77 77 NE 6 9 30.00 1016 10 16 0.00 0.00
11:53 pm 23:53 Mostly Cloudy 75 23.9 68 20 79 79 NE 5 7 29.99 1016 10 16 0.00 0.00

Powered by AerisWeather